Location: Borgo
(42.3939°N, 9.2791°E)
Time: 01:41:00
(UTC+00:00)

CREW DRAGON DEMO-1 DEB - Pass Details

Date: 24 January 2021
Orbit: 332 x 336 km, 51.6° (Epoch: 08 March)

Event Time Altitude Azimuth Distance (km) Brightness Sun altitude
Rises 17:33:01 0° 304° (NW) 2,175 7.3 -12.3°
Reaches altitude 10° 17:35:03 10° 305° (NW) 1,323 6.2 -12.7°
Maximum altitude 17:38:00 82° 32° (NNE) 357 2.6 -13.2°
Enters shadow 17:39:50 21° 121° (ESE) 862 4.2 -13.5°
